• En España
  • Lista de países
  • Para 7 días
  • Temperatura del agua
  • Mapa Satelital
  • El tiempo en el mapa
  • Informadores
  • user-avatar
    Iniciar sesión

    Tiempo cada hora Brisbane

    Hoy, 22 Febrero, Jueves

    Tiempo Temperatura Precipitaciones Viento Presión Humedad
    00:00 +22°C° 0,3 mm 6 mps 758 mmHg 79%
    01:00 +22°C° 0,3 mm 6 mps 758 mmHg 80%
    02:00 +22°C° 0,2 mm 6 mps 758 mmHg 81%
    03:00 +22°C° 0,2 mm 6 mps 758 mmHg 82%
    04:00 +22°C° 0,2 mm 6 mps 758 mmHg 83%
    05:00 +22°C° 0,3 mm 6 mps 758 mmHg 83%
    06:00 +23°C° 0,3 mm 6 mps 758 mmHg 83%
    07:00 +23°C° 0,3 mm 6 mps 759 mmHg 83%
    08:00 +23°C° 0,4 mm 6 mps 759 mmHg 81%
    09:00 +24°C° 0,4 mm 6 mps 759 mmHg 80%
    10:00 +24°C° 0,4 mm 6 mps 759 mmHg 78%
    11:00 +24°C° 0,7 mm 6 mps 759 mmHg 78%
    12:00 +24°C° 0,7 mm 6 mps 758 mmHg 79%
    13:00 +24°C° 0,7 mm 6 mps 758 mmHg 79%
    14:00 +24°C° 0,6 mm 6 mps 758 mmHg 81%
    15:00 +24°C° 0,6 mm 6 mps 758 mmHg 83%
    16:00 +24°C° 0,6 mm 6 mps 758 mmHg 85%
    17:00 +23°C° 0,6 mm 6 mps 758 mmHg 87%
    18:00 +23°C° 0,6 mm 5 mps 758 mmHg 88%
    19:00 +23°C° 0,6 mm 5 mps 758 mmHg 90%
    20:00 +23°C° 0,7 mm 5 mps 758 mmHg 90%
    21:00 +23°C° 0,7 mm 5 mps 759 mmHg 91%
    22:00 +23°C° 0,7 mm 5 mps 759 mmHg 92%
    23:00 +23°C° 1,5 mm 5 mps 759 mmHg 92%

    Mañana, 23 Febrero, Viernes

    Tiempo Temperatura Precipitaciones Viento Presión Humedad
    00:00 +23°C° 1,5 mm 4 mps 758 mmHg 93%
    01:00 +23°C° 1,5 mm 4 mps 758 mmHg 93%
    02:00 +23°C° 2,8 mm 4 mps 758 mmHg 93%
    03:00 +23°C° 2,8 mm 4 mps 758 mmHg 93%
    04:00 +23°C° 2,8 mm 4 mps 757 mmHg 93%
    05:00 +25°C° 2,3 mm 3 mps 758 mmHg 93%
    06:00 +25°C° 2,3 mm 3 mps 758 mmHg 92%
    07:00 +25°C° 2,3 mm 3 mps 758 mmHg 92%
    08:00 +26°C° 2,4 mm 3 mps 759 mmHg 90%
    09:00 +26°C° 2,4 mm 3 mps 759 mmHg 88%
    10:00 +27°C° 2,4 mm 3 mps 759 mmHg 85%
    11:00 +27°C° 2,8 mm 3 mps 759 mmHg 84%
    12:00 +28°C° 2,8 mm 4 mps 758 mmHg 82%
    13:00 +28°C° 2,8 mm 4 mps 758 mmHg 80%
    14:00 +28°C° 2,4 mm 4 mps 758 mmHg 82%
    15:00 +27°C° 2,4 mm 4 mps 757 mmHg 84%
    16:00 +27°C° 2,4 mm 3 mps 757 mmHg 86%
    17:00 +26°C° 2,1 mm 3 mps 757 mmHg 88%
    18:00 +26°C° 2,1 mm 3 mps 758 mmHg 90%
    19:00 +25°C° 2,1 mm 3 mps 758 mmHg 91%
    20:00 +25°C° 2 mm 3 mps 758 mmHg 92%
    21:00 +25°C° 2 mm 3 mps 759 mmHg 93%
    22:00 +25°C° 2 mm 3 mps 759 mmHg 93%
    23:00 +25°C° 2,1 mm 3 mps 759 mmHg 94%

    Pasado mañana, 24 Febrero, Sábado

    Tiempo Temperatura Precipitaciones Viento Presión Humedad
    00:00 +25°C° 2,1 mm 3 mps 758 mmHg 94%
    01:00 +25°C° 2,1 mm 3 mps 758 mmHg 94%
    02:00 +25°C° 1,9 mm 3 mps 758 mmHg 94%
    03:00 +25°C° 1,9 mm 2 mps 758 mmHg 94%
    04:00 +25°C° 1,9 mm 2 mps 757 mmHg 94%
    05:00 +25°C° 1,1 mm 2 mps 758 mmHg 93%
    06:00 +25°C° 1,1 mm 2 mps 758 mmHg 93%
    07:00 +25°C° 1,1 mm 2 mps 758 mmHg 92%
    08:00 +28°C° 0,4 mm 2 mps 758 mmHg 83%
    09:00 +30°C° 0,4 mm 2 mps 758 mmHg 74%
    10:00 +32°C° 0,4 mm 2 mps 758 mmHg 64%
    11:00 +33°C° 0,4 mm 3 mps 758 mmHg 65%
    12:00 +33°C° 0,4 mm 3 mps 757 mmHg 65%
    13:00 +33°C° 0,4 mm 4 mps 756 mmHg 66%
    14:00 +33°C° 0,8 mm 4 mps 756 mmHg 68%
    15:00 +32°C° 0,8 mm 4 mps 756 mmHg 71%
    16:00 +32°C° 0,8 mm 4 mps 755 mmHg 73%
    17:00 +29°C° 0,8 mm 4 mps 756 mmHg 78%
    18:00 +28°C° 0,8 mm 4 mps 756 mmHg 83%
    19:00 +27°C° 0,8 mm 4 mps 756 mmHg 88%
    20:00 +27°C° 1 mm 4 mps 757 mmHg 89%
    21:00 +27°C° 1 mm 4 mps 757 mmHg 90%
    22:00 +26°C° 1 mm 3 mps 757 mmHg 90%
    23:00 +26°C° 0,6 mm 3 mps 757 mmHg 91%

    25 Febrero, Domingo

    Tiempo Temperatura Precipitaciones Viento Presión Humedad
    00:00 +26°C° 0,6 mm 3 mps 756 mmHg 92%
    01:00 +26°C° 0,6 mm 3 mps 756 mmHg 93%
    02:00 +26°C° 0,1 mm 3 mps 755 mmHg 93%
    03:00 +25°C° 0,1 mm 3 mps 755 mmHg 93%
    04:00 +25°C° 0,1 mm 2 mps 755 mmHg 94%
    05:00 +26°C° 0,2 mm 3 mps 755 mmHg 92%
    06:00 +26°C° 0,2 mm 3 mps 755 mmHg 90%
    07:00 +26°C° 0,2 mm 3 mps 756 mmHg 89%
    08:00 +28°C° 0,1 mm 3 mps 755 mmHg 78%
    09:00 +30°C° 0,1 mm 3 mps 755 mmHg 68%
    10:00 +34°C° 0,1 mm 3 mps 755 mmHg 57%
    11:00 +34°C° 0,3 mm 4 mps 754 mmHg 57%
    12:00 +35°C° 0,3 mm 4 mps 754 mmHg 56%
    13:00 +35°C° 0,3 mm 4 mps 753 mmHg 56%
    14:00 +34°C° 1,4 mm 4 mps 752 mmHg 62%
    15:00 +33°C° 1,4 mm 4 mps 752 mmHg 68%
    16:00 +32°C° 1,4 mm 4 mps 752 mmHg 74%
    17:00 +30°C° 1,1 mm 4 mps 752 mmHg 78%
    18:00 +29°C° 1,1 mm 4 mps 752 mmHg 81%
    19:00 +28°C° 1,1 mm 4 mps 753 mmHg 85%
    20:00 +27°C° 0,3 mm 4 mps 753 mmHg 85%
    21:00 +27°C° 0,3 mm 4 mps 753 mmHg 86%
    22:00 +27°C° 0,3 mm 3 mps 754 mmHg 87%
    23:00 +27°C° 0,5 mm 3 mps 753 mmHg 87%

    26 Febrero, Lunes

    Tiempo Temperatura Precipitaciones Viento Presión Humedad
    00:00 +26°C° 0,5 mm 3 mps 753 mmHg 88%
    01:00 +26°C° 0,5 mm 3 mps 753 mmHg 88%
    02:00 +26°C° 0,4 mm 3 mps 753 mmHg 89%
    03:00 +26°C° 0,4 mm 3 mps 753 mmHg 89%
    04:00 +25°C° 0,4 mm 3 mps 753 mmHg 89%
    05:00 +25°C° 0,2 mm 4 mps 754 mmHg 88%
    06:00 +26°C° 0,2 mm 5 mps 755 mmHg 87%
    07:00 +26°C° 0,2 mm 5 mps 756 mmHg 86%
    08:00 +26°C° 0,2 mm 6 mps 756 mmHg 84%
    09:00 +26°C° 0,2 mm 6 mps 756 mmHg 83%
    10:00 +26°C° 0,2 mm 6 mps 757 mmHg 81%
    11:00 +27°C° 0,1 mm 7 mps 756 mmHg 75%
    12:00 +28°C° 0,1 mm 7 mps 756 mmHg 69%
    13:00 +29°C° 0,1 mm 7 mps 756 mmHg 63%
    14:00 +29°C° 0 mm 7 mps 756 mmHg 63%
    15:00 +28°C° 0 mm 7 mps 756 mmHg 62%
    16:00 +28°C° 0 mm 7 mps 756 mmHg 61%
    17:00 +27°C° 0 mm 6 mps 757 mmHg 65%
    18:00 +26°C° 0 mm 6 mps 758 mmHg 69%
    19:00 +24°C° 0 mm 6 mps 759 mmHg 73%
    20:00 +25°C° 0 mm 5 mps 759 mmHg 75%
    21:00 +23°C° 0 mm 5 mps 759 mmHg 77%
    22:00 +23°C° 0 mm 5 mps 760 mmHg 79%
    23:00 +22°C° 0 mm 4 mps 760 mmHg 80%

    27 Febrero, Martes

    Tiempo Temperatura Precipitaciones Viento Presión Humedad
    00:00 +22°C° 0 mm 4 mps 759 mmHg 81%
    01:00 +21°C° 0 mm 4 mps 759 mmHg 82%
    02:00 +21°C° 0 mm 4 mps 759 mmHg 83%
    03:00 +20°C° 0 mm 4 mps 759 mmHg 84%
    04:00 +20°C° 0 mm 4 mps 759 mmHg 85%
    05:00 +20°C° 0 mm 4 mps 759 mmHg 82%
    06:00 +21°C° 0 mm 4 mps 760 mmHg 79%
    07:00 +21°C° 0 mm 4 mps 760 mmHg 76%
    08:00 +23°C° 0 mm 4 mps 761 mmHg 69%
    09:00 +26°C° 0 mm 4 mps 761 mmHg 61%
    10:00 +28°C° 0 mm 4 mps 761 mmHg 53%
    11:00 +29°C° 0 mm 4 mps 760 mmHg 51%
    12:00 +30°C° 0 mm 4 mps 760 mmHg 49%
    13:00 +32°C° 0 mm 4 mps 759 mmHg 47%
    14:00 +30°C° 0 mm 5 mps 759 mmHg 49%
    15:00 +30°C° 0 mm 5 mps 759 mmHg 51%
    16:00 +29°C° 0 mm 5 mps 759 mmHg 52%
    17:00 +28°C° 0 mm 4 mps 759 mmHg 59%
    18:00 +26°C° 0 mm 4 mps 760 mmHg 66%
    19:00 +24°C° 0 mm 3 mps 760 mmHg 72%
    20:00 +24°C° 0 mm 3 mps 760 mmHg 75%
    21:00 +22°C° 0 mm 3 mps 761 mmHg 78%
    22:00 +21°C° 0 mm 2 mps 761 mmHg 81%
    23:00 +21°C° 0 mm 2 mps 761 mmHg 82%
    Mostrar más